Tracking 19800 objects as of 24-Jul-2019
HD Live streaming from Space Station
objects crossing your sky now

FENGYUN 1C DEB

Track FENGYUN 1C DEB now!
10-day predictions


NORAD ID: 30633
Int'l Code: 1999-025ANQ
Perigee: 809.6 km
Apogee: 1,013.3 km
Inclination: 98.4 °
Period: 103.1 minutes
Semi major axis: 7282 km
RCS: 0.025 m2 (small)
Launch date: May 10, 1999
Source: People's Republic of China (PRC)
Launch site: Taiyaun Space Center, China (TSC)

Note: This is SATELLITE DEBRIS
aabbcc
Your satellite tracking list
Your tracking list is empty




NASA's NSSDC Master Catalog

Two Line Element Set (TLE):
1 30633U 99025ANQ 19204.98090226  .00000366  00000-0  26784-3 0  9997
2 30633  98.3884 219.0528 0139838 331.8943  83.0132 13.96959358634027
Source of the keplerian elements: AFSPC